Regional Weather Roundup
Issued by NWS Newport/Morehead, NC

Home | Current Version | Previous Version | Text Only | Print | Product List | Glossary On
Versions: 1 2 3 4 5 6 7 8 9 10 11 12 13 14 15 16 17 18 19 20 21 22 23 24 25 26 27 28 29 30 31 32 33 34 35 36 37 38 39 40 41 42 43 44 45 46 47 48 49 50
000
ASUS42 KMHX 201822
RWRMHX
WEATHER ROUNDUP FOR EASTERN NORTH CAROLINA
NATIONAL WEATHER SERVICE NEWPORT/MOREHEAD CITY NC
200 PM EDT SUN APR 20 2014

NOTE: "FAIR" INDICATES FEW OR NO CLOUDS BELOW 12,000 FEET
WITH NO SIGNIFICANT WEATHER AND/OR OBSTRUCTIONS TO VISIBILITY

NCZ015>017-031-032-045>047-102-103-201900-
NORTH COAST

CITY           SKY/WX    TMP DP  RH WIND       PRES   REMARKS
EDENTON        LGT RAIN  53  52  95 NE17G28   30.22S
ELIZABETH CITY LGT RAIN  52  48  86 N25G35    30.23S FOG
KITTY HAWK     DRIZZLE   50  49  97 N14G26    30.17R
MANTEO         LGT RAIN  51  51  99 NE21G28   30.17R

$$

NCZ045>047-081-094-103-104-201900-
CENTRAL COAST

CITY           SKY/WX    TMP DP  RH WIND       PRES   REMARKS
FRISCO         RAIN      56  56 100 NE12G21   30.07R FOG
SWANQUARTER      N/A     54 N/A N/A N14G29    30.09S

$$

NCZ095-097-098-100-101-201900-
SOUTHERN COAST

CITY           SKY/WX    TMP DP  RH WIND       PRES   REMARKS
BEAUFORT       LGT RAIN  56  55  97 N25G33    30.06R FOG
CEDAR ISLAND     N/A     55 N/A N/A N26G35    30.12S
JACKSONVILLE   LGT RAIN  57  57 100 N22G31    30.09F
NEWPORT          N/A     55  55 100 N13G18      N/A
PINEY ISLAND   LGT RAIN  57  32  38 N30G40    30.07S
WILMINGTON     CLOUDY    58  54  86 N20G30    30.07S


$$

NCZ011>013-027>030-043-044-078>080-089-090>093-098-201900-
COASTAL PLAIN

CITY           SKY/WX    TMP DP  RH WIND       PRES   REMARKS
AHOSKIE        CLOUDY    58  46  62 N24G32    30.26S
CLINTON        CLOUDY    61  51  68 N12G23    30.17S
ELIZABETHTOWN  CLOUDY    60  50  69 N6        30.14S
GOLDSBORO      LGT RAIN  61  54  77 N17G26    30.17R
GREENVILLE     LGT RAIN  59  52  77 NE15G31     N/A
HAVELOCK       LGT RAIN  55  53  93 NE23G31   30.10S FOG
KENANSVILLE    CLOUDY    58  51  79 N20G26    30.16S
KINSTON        CLOUDY    57  54  88 N16       30.18S FOG
NEW BERN       LGT RAIN  57  54  88 N22G32    30.13S FOG
RICHLANDS      CLOUDY    55  55 100 N15G28    30.12S
ROANOKE RAPIDS NOT AVBL
ROCKY MOUNT    CLOUDY    62  48  60 N23G32    30.23R
WASHINGTON     CLOUDY    58  54  85 N17G29    30.19R
WHITEVILLE     CLOUDY    60  49  65 N13G22    30.11F

$$

AMZ130-135-150-152-154-156-158-170-250-252-270-ANZ085-086-088-633-658-670-201900-
MARINE OBSERVATIONS

STATION/POSITION TIME  TEMP    WIND        PRES    WAVE   SWELL
                       AIR SEA DIR/SP/G            HT/PER HT/PER
                 (UTC) (F)     (DEG/KT/KT) (MB)    (FT/S) (FT/S)
CHESAPEAKE LIGHT 1800   49      30/ 31/ 34 1024.8
BUOY 44014       1800   53 49   40/ 23/ 27 1021.9   13/10  10/10
DUCK             1800   49 49   20/ 31/ 37 1021.1
2E DUCK          1800      47                N/A    11/10   3/11
OREGON INLET     1800   51 51  360/ 14/ 20 1020.3
BUOY 44095       1800      48                N/A    14/11   8/11
HATTERAS CG      1800   57 56   20/ 14/ 22 1018.2
DIAMOND BUOY     1800   68 76   70/ 33/ 39 1014.9   18/11  13/11
CAPE LOOKOUT     1800   56      10/ 27/ 33 1016.6
BEAUFORT LAB     1800   56 57   10/ 22/ 30 1017.0
30 SE NEW RIVER  1800   60 65   10/ 29/ 37 1015.2   10/ 6   5/10
5 SE WRIGHTSVILL 1800   58 59   10/ 23/ 29 1016.8
FRYING PAN BUOY  1800   60 69   20/ 35/ 43 1013.4   10/ 8   3/11
BUOY 41001       NOT AVBL
BUOY 41002       NOT AVBL
BUOY 41004       NOT AVBL

$$



USA.gov is the U.S. government's official web portal to all federal, state and local government web resources and services.